Snowfall_Accumulation
0.0 0.0 0.0 0.0 0.0 0.0 0.0 0.0 0.0 0.0 0.0 0.0 0.0 0.0 0.0 0.0 0.0 0.0 0.0 0.0 0.0 0.0 0.0 0.0 0.0 0.0 0.0 0.0 0.0 0.0 0.0 0.0 0.0 0.0 0.0 0.0 0.0 0.0 0.0 0.0 0.0 0.0 0.0
0.0 0.0 0.1 0.0 0.0 0.0 0.0 0.0 0.0 0.0 0.0 0.0 0.0 0.0 0.0 0.0 0.0 0.0 0.0 0.0 0.0 0.0 0.0 0.0 0.0 0.0 0.0 0.0 0.0 0.0 0.0 0.0 0.0 0.0 0.0 0.0 0.0 0.0 0.0 0.0 0.0 0.0 0.0
0.0 0.0 0.1 0.1 0.1 0.1 0.1 0.0 0.0 0.0 0.0 0.0 0.0 0.0 0.0 0.0 0.0 0.0 0.0 0.0 0.0 0.0 0.0 0.0 0.0 0.0 0.0 0.0 0.0 0.0 0.0 0.0 0.0 0.0 0.0 0.0 0.0 0.0 0.0 0.0 0.0 0.0 0.0
0.0 0.0 0.0 0.1 0.0 0.1 0.1 0.0 0.0 0.0 0.0 0.0 0.0 0.0 0.0 0.0 0.0 0.0 0.0 0.0 0.0 0.0 0.0 0.0 0.0 0.0 0.0 0.0 0.0 0.0 0.0 0.0 0.0 0.0 0.0 0.0 0.0 0.0 0.0 0.0 0.0 0.0 0.0
0.0 0.0 0.0 0.1 0.0 0.0 0.0 0.0 0.0 0.2 0.0 0.0 0.0 0.0 0.0 0.0 0.0 0.0 0.0 0.0 0.0 0.0 0.0 0.0 0.0 0.0 0.0 0.0 0.0 0.0 0.0 0.0 0.0 0.0 0.0 0.0 0.0 0.0 0.0 0.0 0.0 0.0 0.0
0.0 0.0 0.0 0.0 0.0 0.0 0.0 0.0 0.0 0.3 0.0 0.0 0.0 0.0 0.0 0.0 0.0 0.0 0.0 0.0 0.0 0.0 0.0 0.0 0.0 0.0 0.0 0.0 0.0 0.0 0.0 0.0 0.0 0.0 0.0 0.0 0.0 0.0 0.8 0.0 0.0 0.0 0.0
0.0 0.0 0.0 0.0 0.0 0.0 0.0 0.0 0.0 0.3 0.0 0.0 0.0 0.0 0.0 0.0 0.0 0.0 0.0 0.0 0.0 0.0 0.0 0.0 0.0 0.0 0.0 0.0 0.0 0.0 0.0 0.0 0.0 0.0 0.0 0.0 0.0 0.0 0.0 0.9 0.0 0.0 0.0
0.0 0.0 0.0 0.0 0.0 0.0 0.0 0.0 0.0 0.2 0.0 0.0 0.0 0.0 0.0 0.0 0.0 0.0 0.0 0.0 0.0 0.0 0.0 0.0 0.0 0.0 0.0 0.0 0.0 0.0 0.0 0.0 0.0 0.0 0.0 0.0 0.0 0.0 0.0 1.3 1.2 0.0 0.0
0.0 0.0 0.0 0.0 0.0 0.0 0.0 0.0 0.0 0.1 0.0 0.0 0.0 0.0 0.0 0.0 0.0 0.0 0.0 0.0 0.0 0.0 0.0 0.0 0.0 0.0 0.0 0.0 0.0 0.0 0.0 0.0 0.0 0.0 0.0 0.0 0.0 0.0 0.0 0.0 1.6 1.3 2.1
0.0 0.1 0.0 0.0 0.0 0.0 0.0 0.0 0.0 0.0 0.0 0.0 0.0 0.0 0.0 0.0 0.0 0.0 0.0 0.0 0.0 0.0 0.0 0.0 0.0 0.0 0.0 0.0 0.0 0.0 0.0 0.0 0.0 0.0 0.0 0.0 0.0 0.0 0.0 0.0 1.7 1.2 0.0
0.8 0.2 0.0 0.0 0.0 0.0 0.0 0.0 0.0 0.0 0.0 0.0 0.0 0.0 0.0 0.0 0.0 0.0 0.0 0.0 0.0 0.0 0.0 0.0 0.0 0.0 0.0 0.0 0.0 0.0 0.0 0.0 0.0 0.0 0.0 0.0 0.0 0.0 0.0 0.0 0.0 2.5 0.9
1.3 0.7 0.2 0.1 0.0 0.1 0.1 0.0 0.0 0.0 0.0 0.0 0.0 0.0 0.0 0.0 0.0 0.0 0.0 0.0 0.0 0.0 0.0 0.0 0.0 0.0 0.0 0.0 0.0 0.0 0.0 0.0 0.0 0.0 0.0 0.0 0.0 0.0 0.0 0.0 0.6 2.5 1.6
2.5 1.5 0.3 0.1 0.5 0.1 0.1 0.1 0.1 0.0 0.0 0.0 0.0 0.0 0.0 0.0 0.0 0.0 0.0 0.0 0.0 0.0 0.0 0.0 0.0 0.0 0.0 0.0 0.0 0.0 0.0 0.0 0.0 0.0 0.0 0.0 0.0 0.1 0.0 1.5 0.8 0.6 1.9
5.9 3.0 2.7 1.4 0.4 0.4 0.8 0.5 0.3 0.1 0.0 0.0 0.0 0.0 0.0 0.0 0.0 0.0 0.0 0.0 0.0 0.0 0.0 0.0 0.0 0.0 0.0 0.0 0.0 0.0 0.0 0.0 0.0 0.0 0.0 0.0 0.6 0.3 0.9 0.6 1.1 0.8 1.2
9.7 6.8 3.8 2.4 1.3 1.0 0.7 0.5 0.3 0.1 0.0 0.0 0.1 0.0 0.0 0.0 0.0 0.0 0.0 0.0 0.0 0.0 0.0 0.0 0.0 0.0 0.0 0.0 0.0 0.0 0.0 0.1 0.4 0.1 2.2 1.8 1.7 1.1 1.6 1.2 0.6 0.7 0.4
12.9 8.0 5.3 2.2 1.3 1.3 1.1 0.8 0.4 0.1 0.3 0.6 0.2 0.0 0.1 0.0 0.0 0.1 0.0 0.0 0.1 0.0 0.0 0.0 0.0 0.0 0.0 0.0 0.0 0.0 0.0 0.5 2.8 3.0 2.7 1.6 1.0 0.5 0.0 0.1 0.4 0.6 1.7
16.9 11.9 6.6 4.1 2.4 1.6 1.6 1.6 0.7 0.7 0.6 0.6 0.2 0.1 0.1 0.2 0.0 0.0 0.0 0.0 0.0 0.0 0.0 0.0 0.0 3.2 0.0 0.0 0.0 3.0 3.4 3.6 2.4 1.7 1.1 1.0 0.3 0.5 0.3 0.0 0.4 1.9 2.9
20.6 15.2 11.2 6.0 2.7 1.3 1.2 1.2 1.0 1.4 1.0 0.7 0.2 0.3 0.6 0.4 0.1 0.5 1.1 0.7 0.1 1.3 0.7 0.8 6.7 6.9 1.4 2.5 5.3 4.0 2.4 1.1 1.1 0.6 0.2 0.0 0.1 0.1 0.5 0.7 3.3 1.7 0.1
24.7 21.0 17.8 10.1 5.1 3.0 1.9 2.0 1.2 1.0 0.7 1.2 1.8 0.5 1.6 1.2 1.3 4.3 3.2 7.2 3.6 10.2 7.0 4.9 3.8 2.9 2.2 0.0 0.6 0.5 0.2 0.2 0.1 0.1 0.1 0.3 0.2 0.1 1.3 3.6 2.5 0.3 0.3
26.0 29.7 21.1 8.7 5.2 2.4 1.9 1.7 1.3 1.1 0.4 0.6 0.8 0.8 0.4 0.5 2.8 6.8 6.0 5.3 6.0 6.6 5.1 3.3 1.6 1.0 0.5 0.2 0.0 0.3 0.2 0.7 0.1 0.0 0.3 0.2 0.5 1.0 4.8 2.3 1.7 1.7 0.4
25.2 27.8 18.9 8.2 4.3 3.1 3.2 1.3 1.4 1.3 1.8 2.8 2.9 2.8 1.2 1.7 1.5 5.9 4.8 3.4 2.8 2.4 2.1 1.1 0.4 0.1 0.0 0.0 0.1 0.3 0.6 1.6 0.9 1.0 0.1 0.0 0.3 3.5 1.8 2.1 2.4 1.8 0.5
26.1 32.0 25.4 16.1 11.8 9.3 4.6 4.7 7.0 3.2 2.4 5.2 2.6 4.6 3.6 2.7 1.8 0.4 0.3 2.5 2.7 4.7 3.2 2.7 2.0 0.7 0.2 0.0 0.1 0.5 1.3 1.4 4.0 1.8 1.0 0.8 2.9 0.3 0.6 1.6 1.8 1.9 2.1
25.4 35.2 36.9 30.2 14.6 9.2 8.2 8.5 7.3 6.5 7.1 5.0 5.6 8.5 7.9 6.5 5.2 3.5 4.0 6.8 5.8 5.8 7.8 4.8 2.0 3.2 1.9 0.6 0.2 0.9 1.7 3.0 3.2 2.6 2.3 2.8 1.8 1.3 1.3 1.1 1.5 2.1 1.6
22.3 32.7 32.1 27.5 15.0 15.0 14.8 8.9 7.0 5.5 5.2 7.4 8.9 8.4 8.7 8.2 10.5 9.4 8.4 7.6 10.1 9.9 9.2 7.2 6.6 5.0 3.5 3.6 2.2 1.8 2.0 1.0 3.1 3.6 3.2 1.8 1.7 1.3 1.2 2.1 1.2 1.0 1.4
16.4 27.3 33.0 33.4 24.6 19.4 21.1 15.2 12.7 7.2 7.9 8.2 10.0 10.3 10.5 10.0 9.6 9.7 9.2 9.1 8.1 7.3 9.9 10.2 9.3 9.5 8.8 5.9 5.6 7.0 7.8 8.0 6.2 6.5 5.2 3.9 2.9 2.7 1.6 1.2 0.8 0.6 0.8
13.0 19.5 28.7 31.6 32.2 27.3 20.4 19.2 13.2 8.5 8.5 8.3 7.8 7.9 8.7 9.0 8.0 7.7 8.4 8.0 6.9 7.7 8.9 9.1 10.5 10.5 9.3 8.4 9.4 10.3 10.0 8.5 8.8 10.7 11.3 6.0 3.4 2.4 1.8 2.3 2.4 2.3 0.7